TimeAKDT,TemperatureF,Dew PointF,Humidity,Sea Level PressureIn,VisibilityMPH,Wind Direction,Wind SpeedMPH,Gust SpeedMPH,PrecipitationIn,Events,Conditions,WindDirDegrees,DateUTC
12:16 AM,55.4,44.6,67,29.53,-9999.0,East,9.2,16.1,N/A,,Overcast,90,2013-09-03 08:16:00
12:36 AM,57.2,42.8,59,29.53,-9999.0,East,10.4,18.4,N/A,,Overcast,90,2013-09-03 08:36:00
12:56 AM,57.2,42.8,59,29.52,-9999.0,East,9.2,16.1,N/A,,Overcast,100,2013-09-03 08:56:00
1:16 AM,57.2,42.8,59,29.51,-9999.0,East,9.2,-,N/A,,Overcast,90,2013-09-03 09:16:00
1:36 AM,57.2,42.8,59,29.49,-9999.0,East,10.4,16.1,N/A,,Overcast,90,2013-09-03 09:36:00
1:56 AM,57.2,42.8,59,29.49,-9999.0,East,9.2,-,N/A,,Overcast,80,2013-09-03 09:56:00
2:16 AM,57.2,42.8,59,29.51,-9999.0,East,9.2,18.4,N/A,,Overcast,100,2013-09-03 10:16:00
2:36 AM,57.2,42.8,59,29.49,-9999.0,ESE,5.8,-,N/A,,Overcast,120,2013-09-03 10:36:00
2:56 AM,55.4,42.8,63,29.49,-9999.0,East,4.6,-,N/A,,Overcast,90,2013-09-03 10:56:00
3:16 AM,55.4,42.8,63,29.49,-9999.0,Calm,Calm,-,N/A,,Overcast,0,2013-09-03 11:16:00
3:36 AM,53.6,44.6,72,29.48,-9999.0,Calm,Calm,-,N/A,,Overcast,0,2013-09-03 11:36:00
3:56 AM,53.6,42.8,67,29.47,-9999.0,NE,3.5,-,N/A,,Overcast,40,2013-09-03 11:56:00
4:16 AM,51.8,44.6,76,29.45,-9999.0,NNE,5.8,-,N/A,,Overcast,20,2013-09-03 12:16:00
4:36 AM,51.8,44.6,76,29.46,-9999.0,Calm,Calm,-,N/A,,Overcast,0,2013-09-03 12:36:00
4:56 AM,51.8,44.6,76,29.45,-9999.0,NE,5.8,-,0.01,,Overcast,50,2013-09-03 12:56:00
5:16 AM,51.8,44.6,76,29.44,-9999.0,NE,4.6,-,N/A,,Overcast,40,2013-09-03 13:16:00
5:36 AM,53.6,44.6,72,29.42,-9999.0,ENE,6.9,-,0.01,,Overcast,70,2013-09-03 13:36:00
5:56 AM,53.6,42.8,67,29.42,-9999.0,East,10.4,19.6,0.01,,Overcast,90,2013-09-03 13:56:00
6:16 AM,55.4,42.8,63,29.42,-9999.0,ESE,13.8,20.7,N/A,,Overcast,110,2013-09-03 14:16:00
6:36 AM,53.6,42.8,67,29.42,-9999.0,East,8.1,17.3,N/A,,Overcast,90,2013-09-03 14:36:00
6:56 AM,53.6,42.8,67,29.41,-9999.0,East,10.4,17.3,0.01,,Overcast,100,2013-09-03 14:56:00
7:16 AM,53.6,42.8,67,29.39,-9999.0,ENE,9.2,-,N/A,,Overcast,70,2013-09-03 15:16:00
7:36 AM,53.6,42.8,67,29.38,-9999.0,East,8.1,17.3,N/A,,Overcast,90,2013-09-03 15:36:00
7:56 AM,-9999,-9999,N/A,29.37,-9999.0,East,10.4,-,N/A,,Overcast,80,2013-09-03 15:56:00
8:16 AM,53.6,42.8,67,29.37,-9999.0,East,11.5,17.3,N/A,,Overcast,80,2013-09-03 16:16:00
8:36 AM,53.6,42.8,67,29.36,-9999.0,East,8.1,-,N/A,,Overcast,80,2013-09-03 16:36:00
8:56 AM,55.4,42.8,63,29.35,-9999.0,East,9.2,18.4,N/A,,Overcast,90,2013-09-03 16:56:00
9:16 AM,-9999,-9999,N/A,29.33,-9999.0,East,8.1,18.4,N/A,,Overcast,80,2013-09-03 17:16:00
9:36 AM,57.2,42.8,59,29.32,-9999.0,East,8.1,-,N/A,,Mostly Cloudy,80,2013-09-03 17:36:00
9:56 AM,57.2,44.6,63,29.31,-9999.0,East,10.4,-,N/A,,Mostly Cloudy,80,2013-09-03 17:56:00
10:16 AM,57.2,42.8,59,29.31,-9999.0,ENE,11.5,18.4,N/A,,Overcast,70,2013-09-03 18:16:00
10:36 AM,59.0,44.6,59,29.30,-9999.0,ENE,9.2,-,N/A,,Overcast,70,2013-09-03 18:36:00
10:56 AM,60.8,44.6,55,29.29,-9999.0,ENE,10.4,18.4,N/A,,Overcast,70,2013-09-03 18:56:00
11:16 AM,62.6,44.6,52,29.28,-9999.0,ENE,11.5,16.1,N/A,,Overcast,70,2013-09-03 19:16:00
11:36 AM,64.4,44.6,49,29.27,-9999.0,East,9.2,19.6,N/A,,Mostly Cloudy,90,2013-09-03 19:36:00
11:56 AM,66.2,44.6,46,29.27,-9999.0,East,12.7,19.6,N/A,,Mostly Cloudy,100,2013-09-03 19:56:00
12:16 PM,66.2,44.6,46,29.27,-9999.0,ESE,10.4,23.0,N/A,,Partly Cloudy,120,2013-09-03 20:16:00
12:36 PM,66.2,46.4,49,29.27,-9999.0,ESE,9.2,-,N/A,,Clear,120,2013-09-03 20:36:00
12:56 PM,66.2,44.6,46,29.28,-9999.0,SE,10.4,18.4,N/A,,Clear,130,2013-09-03 20:56:00
1:16 PM,66.2,44.6,46,29.28,-9999.0,SW,6.9,-,N/A,,Partly Cloudy,230,2013-09-03 21:16:00
1:36 PM,62.6,51.8,68,29.29,-9999.0,West,8.1,-,N/A,,Mostly Cloudy,280,2013-09-03 21:36:00
1:56 PM,60.8,51.8,72,29.29,-9999.0,West,6.9,-,N/A,,Overcast,270,2013-09-03 21:56:00
2:16 PM,60.8,51.8,72,29.30,-9999.0,West,4.6,-,N/A,,Overcast,270,2013-09-03 22:16:00
2:36 PM,59.0,50.0,72,29.31,-9999.0,West,4.6,-,N/A,,Overcast,270,2013-09-03 22:36:00
2:56 PM,57.2,50.0,77,29.33,-9999.0,West,12.7,18.4,N/A,,Overcast,260,2013-09-03 22:56:00
3:16 PM,55.4,46.4,72,29.36,-9999.0,WSW,6.9,24.2,N/A,,Overcast,250,2013-09-03 23:16:00
3:36 PM,53.6,46.4,77,29.38,-9999.0,WSW,9.2,-,0.01,,Mostly Cloudy,250,2013-09-03 23:36:00
3:56 PM,53.6,46.4,77,29.38,-9999.0,West,5.8,-,0.01,,Overcast,270,2013-09-03 23:56:00
4:16 PM,53.6,44.6,72,29.39,-9999.0,Calm,Calm,-,N/A,,Overcast,0,2013-09-04 00:16:00
4:36 PM,53.6,44.6,72,29.39,-9999.0,WNW,4.6,-,N/A,,Overcast,290,2013-09-04 00:36:00
4:56 PM,53.6,44.6,72,29.39,-9999.0,WNW,3.5,-,N/A,,Overcast,290,2013-09-04 00:56:00
5:16 PM,53.6,44.6,72,29.40,-9999.0,Calm,Calm,-,N/A,,Overcast,0,2013-09-04 01:16:00
5:36 PM,51.8,44.6,76,29.40,-9999.0,NE,4.6,-,0.01,,Overcast,50,2013-09-04 01:36:00
5:56 PM,51.8,46.4,82,29.40,-9999.0,NE,3.5,-,0.01,,Overcast,40,2013-09-04 01:56:00
6:16 PM,51.8,46.4,82,29.40,-9999.0,NE,3.5,-,0.04,,Overcast,50,2013-09-04 02:16:00
6:36 PM,51.8,46.4,82,29.40,-9999.0,ENE,5.8,-,0.04,,Overcast,70,2013-09-04 02:36:00
6:56 PM,51.8,46.4,82,29.40,-9999.0,ENE,5.8,-,0.04,,Overcast,70,2013-09-04 02:56:00
7:16 PM,51.8,46.4,82,29.40,-9999.0,East,3.5,-,N/A,,Overcast,80,2013-09-04 03:16:00
7:36 PM,51.8,46.4,82,29.39,-9999.0,Calm,Calm,-,0.01,,Overcast,0,2013-09-04 03:36:00
7:56 PM,51.8,46.4,82,29.39,-9999.0,East,3.5,-,0.01,,Overcast,100,2013-09-04 03:56:00
8:16 PM,53.6,46.4,77,29.40,-9999.0,East,4.6,-,N/A,,Overcast,90,2013-09-04 04:16:00
8:36 PM,53.6,46.4,77,29.41,-9999.0,East,3.5,-,N/A,,Overcast,80,2013-09-04 04:36:00
8:56 PM,53.6,44.6,72,29.41,-9999.0,NE,5.8,-,N/A,,Overcast,50,2013-09-04 04:56:00
9:16 PM,53.6,44.6,72,29.41,-9999.0,ENE,6.9,-,N/A,,Overcast,70,2013-09-04 05:16:00
9:36 PM,53.6,42.8,67,29.41,-9999.0,ENE,6.9,-,N/A,,Overcast,70,2013-09-04 05:36:00
9:56 PM,53.6,42.8,67,29.41,-9999.0,Calm,Calm,-,N/A,,Overcast,0,2013-09-04 05:56:00
10:16 PM,51.8,42.8,71,29.41,-9999.0,ENE,5.8,-,N/A,,Overcast,70,2013-09-04 06:16:00
10:36 PM,53.6,41.0,62,29.42,-9999.0,East,5.8,-,N/A,,Overcast,80,2013-09-04 06:36:00
10:56 PM,53.6,41.0,62,29.42,-9999.0,East,5.8,-,N/A,,Overcast,100,2013-09-04 06:56:00
11:16 PM,55.4,41.0,58,29.41,-9999.0,East,5.8,-,N/A,,Overcast,90,2013-09-04 07:16:00
11:36 PM,55.4,39.2,54,29.42,-9999.0,East,6.9,-,N/A,,Overcast,100,2013-09-04 07:36:00
11:56 PM,55.4,39.2,54,29.42,-9999.0,East,5.8,-,N/A,,Overcast,90,2013-09-04 07:56:00